Time,TemperatureF,DewpointF,PressureIn,WindDirection,WindDirectionDegrees,WindSpeedMPH,WindSpeedGustMPH,Humidity,HourlyPrecipIn,Conditions,Clouds,dailyrainin,SoftwareType,DateUTC
2013-05-28 00:03:00,54.0,53.0,-100.00,SSE,160,7.0,13.0,95,5.08,,,-99.99,,2013-05-28 04:03:00,
2013-05-28 00:13:00,54.0,53.0,-100.00,SSE,160,9.0,14.0,95,3.39,,,-99.99,,2013-05-28 04:13:00,
2013-05-28 00:22:00,53.0,52.0,-100.00,SE,145,8.0,14.0,95,1.10,,,-99.99,,2013-05-28 04:22:00,
2013-05-28 00:33:00,53.0,52.0,-100.00,SSE,160,6.0,13.0,96,1.69,,,-99.99,,2013-05-28 04:33:00,
2013-05-28 00:43:00,53.0,52.0,-100.00,SE,140,9.0,17.0,96,5.08,,,-99.99,,2013-05-28 04:43:00,
2013-05-28 00:52:00,53.0,52.0,-100.00,SSE,150,8.0,24.0,96,0.55,,,-99.99,,2013-05-28 04:52:00,
2013-05-28 01:02:00,53.0,52.0,-100.00,SSE,150,8.0,24.0,96,0.55,,,-99.99,,2013-05-28 05:02:00,
2013-05-28 01:12:00,53.0,52.0,-100.00,South,170,7.0,15.0,95,0.00,,,-99.99,,2013-05-28 05:12:00,
2013-05-28 01:22:00,53.0,52.0,-100.00,SE,140,11.0,21.0,95,0.00,,,-99.99,,2013-05-28 05:22:00,
2013-05-28 01:33:00,53.0,52.0,-100.00,SSE,150,10.0,16.0,95,1.10,,,-99.99,,2013-05-28 05:33:00,
2013-05-28 01:42:00,53.0,52.0,-100.00,South,175,9.0,17.0,95,0.55,,,-99.99,,2013-05-28 05:42:00,
2013-05-28 01:52:00,53.0,52.0,-100.00,SE,145,7.0,13.0,95,0.00,,,-99.99,,2013-05-28 05:52:00,
2013-05-28 02:02:00,53.0,52.0,-100.00,SSE,155,7.0,14.0,96,0.00,,,-99.99,,2013-05-28 06:02:00,
2013-05-28 02:12:00,54.0,53.0,-100.00,SE,145,7.0,15.0,96,0.00,,,-99.99,,2013-05-28 06:12:00,
2013-05-28 02:22:00,54.0,53.0,-100.00,South,170,7.0,13.0,96,1.69,,,-99.99,,2013-05-28 06:22:00,
2013-05-28 02:32:00,54.0,53.0,-100.00,SSE,150,9.0,14.0,96,0.00,,,-99.99,,2013-05-28 06:32:00,
2013-05-28 02:42:00,54.0,53.0,-100.00,SSE,160,7.0,14.0,96,0.00,,,-99.99,,2013-05-28 06:42:00,
2013-05-28 02:51:00,54.0,53.0,-100.00,SSE,160,8.0,13.0,96,0.55,,,-99.99,,2013-05-28 06:51:00,
2013-05-28 03:02:00,55.0,53.0,-100.00,SSE,155,8.0,17.0,96,1.10,,,-99.99,,2013-05-28 07:02:00,
2013-05-28 03:11:00,55.0,53.0,-100.00,SSE,150,8.0,12.0,96,0.55,,,-99.99,,2013-05-28 07:11:00,
2013-05-28 03:21:00,55.0,54.0,-100.00,South,170,6.0,11.0,96,4.53,,,-99.99,,2013-05-28 07:21:00,
2013-05-28 03:32:00,55.0,54.0,-100.00,SSE,150,7.0,13.0,96,2.24,,,-99.99,,2013-05-28 07:32:00,
2013-05-28 03:42:00,55.0,54.0,-100.00,South,170,7.0,12.0,96,0.00,,,-99.99,,2013-05-28 07:42:00,
2013-05-28 03:52:00,55.0,54.0,-100.00,South,175,7.0,10.0,96,13.03,,,-99.99,,2013-05-28 07:52:00,
2013-05-28 04:02:00,55.0,54.0,-100.00,SSE,160,9.0,12.0,96,1.69,,,-99.99,,2013-05-28 08:02:00,
2013-05-28 04:12:00,55.0,55.0,-100.00,SSE,155,6.0,13.0,96,2.24,,,-99.99,,2013-05-28 08:12:00,
2013-05-28 04:22:00,56.0,55.0,-100.00,SSE,150,6.0,9.0,97,0.55,,,-99.99,,2013-05-28 08:22:00,
2013-05-28 04:32:00,56.0,55.0,-100.00,South,175,4.0,10.0,97,-99.99,,,-99.99,,2013-05-28 08:32:00,
2013-05-28 04:42:00,56.0,55.0,-100.00,SSE,160,9.0,12.0,97,0.55,,,-99.99,,2013-05-28 08:42:00,
2013-05-28 04:51:00,56.0,55.0,-100.00,SSE,155,6.0,13.0,97,0.00,,,-99.99,,2013-05-28 08:51:00,
2013-05-28 05:01:00,56.0,55.0,-100.00,SSE,155,6.0,13.0,97,0.00,,,-99.99,,2013-05-28 09:01:00,
2013-05-28 05:11:00,56.0,56.0,-100.00,SSE,155,9.0,12.0,97,0.00,,,-99.99,,2013-05-28 09:11:00,
2013-05-28 05:21:00,56.0,56.0,-100.00,South,170,7.0,11.0,97,0.00,,,-99.99,,2013-05-28 09:21:00,
2013-05-28 05:33:00,57.0,56.0,-100.00,South,170,7.0,12.0,97,0.00,,,-99.99,,2013-05-28 09:33:00,
2013-05-28 05:43:00,57.0,56.0,-100.00,South,170,7.0,12.0,97,0.00,,,-99.99,,2013-05-28 09:43:00,
2013-05-28 05:53:00,57.0,56.0,-100.00,South,175,7.0,14.0,97,0.00,,,-99.99,,2013-05-28 09:53:00,
2013-05-28 06:03:00,57.0,56.0,-100.00,South,175,7.0,14.0,97,0.00,,,-99.99,,2013-05-28 10:03:00,
2013-05-28 06:12:00,57.0,56.0,-100.00,South,180,6.0,12.0,96,0.00,,,-99.99,,2013-05-28 10:12:00,
2013-05-28 06:23:00,57.0,56.0,-100.00,South,180,6.0,12.0,96,0.00,,,-99.99,,2013-05-28 10:23:00,
2013-05-28 06:32:00,57.0,56.0,-100.00,South,175,8.0,12.0,96,0.00,,,-99.99,,2013-05-28 10:32:00,
2013-05-28 06:43:00,57.0,56.0,-100.00,South,185,9.0,12.0,96,0.00,,,-99.99,,2013-05-28 10:43:00,
2013-05-28 06:53:00,57.0,56.0,-100.00,South,190,6.0,14.0,96,0.00,,,-99.99,,2013-05-28 10:53:00,
2013-05-28 07:02:00,58.0,57.0,-100.00,South,190,7.0,12.0,96,0.00,,,-99.99,,2013-05-28 11:02:00,
2013-05-28 07:11:00,58.0,57.0,-100.00,South,185,7.0,11.0,96,0.00,,,-99.99,,2013-05-28 11:11:00,
2013-05-28 07:22:00,58.0,57.0,-100.00,South,185,6.0,12.0,96,0.00,,,-99.99,,2013-05-28 11:22:00,
2013-05-28 07:32:00,58.0,57.0,-100.00,SSW,210,4.0,9.0,96,0.00,,,-99.99,,2013-05-28 11:32:00,
2013-05-28 07:42:00,58.0,57.0,-100.00,SSW,210,4.0,9.0,96,0.00,,,-99.99,,2013-05-28 11:42:00,
2013-05-28 07:52:00,60.0,58.0,-100.00,South,185,4.0,7.0,96,0.00,,,-99.99,,2013-05-28 11:52:00,
2013-05-28 08:02:00,60.0,59.0,-100.00,South,180,2.0,9.0,96,0.00,,,-99.99,,2013-05-28 12:02:00,
2013-05-28 08:11:00,61.0,59.0,-100.00,South,175,4.0,10.0,95,0.00,,,-99.99,,2013-05-28 12:11:00,
2013-05-28 08:22:00,61.0,60.0,-100.00,South,175,4.0,9.0,95,0.00,,,-99.99,,2013-05-28 12:22:00,
2013-05-28 08:32:00,62.0,60.0,-100.00,South,185,2.0,8.0,95,0.00,,,-99.99,,2013-05-28 12:32:00,
2013-05-28 08:42:00,62.0,61.0,-100.00,South,175,2.0,6.0,94,0.00,,,-99.99,,2013-05-28 12:42:00,
2013-05-28 08:52:00,63.0,61.0,-100.00,South,175,2.0,7.0,94,0.00,,,-99.99,,2013-05-28 12:52:00,
2013-05-28 09:01:00,63.0,62.0,-100.00,SW,220,1.0,5.0,94,0.00,,,-99.99,,2013-05-28 13:01:00,
2013-05-28 09:11:00,64.0,62.0,-100.00,NW,325,1.0,5.0,93,0.00,,,-99.99,,2013-05-28 13:11:00,
2013-05-28 09:21:00,64.0,62.0,-100.00,SSW,195,1.0,7.0,93,0.00,,,-99.99,,2013-05-28 13:21:00,
2013-05-28 09:32:00,64.0,62.0,-100.00,South,175,1.0,6.0,92,0.00,,,-99.99,,2013-05-28 13:32:00,
2013-05-28 09:42:00,64.0,62.0,-100.00,South,175,1.0,6.0,92,0.00,,,-99.99,,2013-05-28 13:42:00,
2013-05-28 09:52:00,65.0,62.0,-100.00,South,180,4.0,6.0,92,0.00,,,-99.99,,2013-05-28 13:52:00,
2013-05-28 10:02:00,65.0,62.0,-100.00,South,180,5.0,9.0,92,0.00,,,-99.99,,2013-05-28 14:02:00,
2013-05-28 10:11:00,64.0,62.0,-100.00,SSE,160,6.0,9.0,93,0.00,,,-99.99,,2013-05-28 14:11:00,
2013-05-28 10:21:00,64.0,62.0,-100.00,SSE,160,6.0,9.0,93,0.00,,,-99.99,,2013-05-28 14:21:00,
2013-05-28 10:32:00,64.0,62.0,-100.00,South,185,4.0,9.0,93,0.00,,,-99.99,,2013-05-28 14:32:00,
2013-05-28 10:42:00,64.0,62.0,-100.00,South,175,5.0,9.0,94,0.00,,,-99.99,,2013-05-28 14:42:00,
2013-05-28 10:52:00,64.0,63.0,-100.00,SSW,200,2.0,11.0,94,0.00,,,-99.99,,2013-05-28 14:52:00,
2013-05-28 11:01:00,65.0,63.0,-100.00,South,185,6.0,11.0,95,0.00,,,-99.99,,2013-05-28 15:01:00,
2013-05-28 11:11:00,65.0,64.0,-100.00,South,185,5.0,11.0,95,0.00,,,-99.99,,2013-05-28 15:11:00,
2013-05-28 11:21:00,67.0,65.0,-100.00,South,170,6.0,11.0,94,0.00,,,-99.99,,2013-05-28 15:21:00,
2013-05-28 11:33:00,68.0,66.0,-100.00,South,180,9.0,11.0,93,0.00,,,-99.99,,2013-05-28 15:33:00,
2013-05-28 11:43:00,69.0,66.0,-100.00,South,180,7.0,12.0,91,0.00,,,-99.99,,2013-05-28 15:43:00,
2013-05-28 11:52:00,70.0,67.0,-100.00,SSW,205,6.0,11.0,89,0.00,,,-99.99,,2013-05-28 15:52:00,
2013-05-28 12:03:00,73.0,67.0,-100.00,South,185,9.0,13.0,84,0.00,,,-99.99,,2013-05-28 16:03:00,
2013-05-28 12:13:00,73.0,67.0,-100.00,SSW,200,6.0,13.0,82,0.00,,,-99.99,,2013-05-28 16:13:00,
2013-05-28 12:22:00,74.0,67.0,-100.00,SW,230,5.0,14.0,79,0.00,,,-99.99,,2013-05-28 16:22:00,
2013-05-28 12:33:00,74.0,67.0,-100.00,SW,230,5.0,14.0,79,0.00,,,-99.99,,2013-05-28 16:33:00,
2013-05-28 12:42:00,74.0,67.0,-100.00,SW,230,5.0,14.0,79,0.00,,,-99.99,,2013-05-28 16:42:00,
2013-05-28 12:52:00,76.0,67.0,-100.00,SSW,205,7.0,15.0,75,0.00,,,-99.99,,2013-05-28 16:52:00,
2013-05-28 13:02:00,76.0,67.0,-100.00,SSW,205,7.0,15.0,75,0.00,,,-99.99,,2013-05-28 17:02:00,
2013-05-28 13:12:00,77.0,67.0,-100.00,South,180,8.0,16.0,71,0.00,,,-99.99,,2013-05-28 17:12:00,
2013-05-28 13:22:00,77.0,67.0,-100.00,WSW,255,5.0,19.0,71,0.00,,,-99.99,,2013-05-28 17:22:00,
2013-05-28 13:32:00,79.0,68.0,-100.00,South,185,4.0,16.0,69,0.00,,,-99.99,,2013-05-28 17:32:00,
2013-05-28 13:42:00,79.0,67.0,-100.00,South,190,7.0,14.0,68,0.00,,,-99.99,,2013-05-28 17:42:00,
2013-05-28 13:51:00,79.0,67.0,-100.00,WSW,255,7.0,12.0,67,0.00,,,-99.99,,2013-05-28 17:51:00,
2013-05-28 14:01:00,80.0,68.0,-100.00,SSE,155,4.0,13.0,67,0.00,,,-99.99,,2013-05-28 18:01:00,
2013-05-28 14:11:00,79.0,68.0,-100.00,South,175,11.0,17.0,68,0.00,,,-99.99,,2013-05-28 18:11:00,
2013-05-28 14:21:00,79.0,68.0,-100.00,South,180,11.0,15.0,69,0.00,,,-99.99,,2013-05-28 18:21:00,
2013-05-28 14:32:00,79.0,68.0,-100.00,South,180,11.0,15.0,69,0.00,,,-99.99,,2013-05-28 18:32:00,
2013-05-28 14:42:00,80.0,68.0,-100.00,South,175,12.0,17.0,67,0.00,,,-99.99,,2013-05-28 18:42:00,
2013-05-28 14:52:00,79.0,68.0,-100.00,WSW,240,4.0,17.0,69,0.00,,,-99.99,,2013-05-28 18:52:00,
2013-05-28 15:01:00,79.0,68.0,-100.00,WSW,240,4.0,17.0,69,0.00,,,-99.99,,2013-05-28 19:01:00,
2013-05-28 15:11:00,80.0,67.0,-100.00,SSW,195,4.0,16.0,65,0.00,,,-99.99,,2013-05-28 19:11:00,
2013-05-28 15:21:00,80.0,66.0,-100.00,SSW,200,4.0,18.0,64,0.00,,,-99.99,,2013-05-28 19:21:00,
2013-05-28 15:32:00,82.0,68.0,-100.00,South,190,4.0,17.0,62,0.00,,,-99.99,,2013-05-28 19:32:00,
2013-05-28 15:42:00,83.0,67.0,-100.00,South,190,4.0,11.0,59,0.00,,,-99.99,,2013-05-28 19:42:00,
2013-05-28 15:52:00,83.0,67.0,-100.00,South,190,4.0,11.0,59,0.00,,,-99.99,,2013-05-28 19:52:00,
2013-05-28 16:02:00,83.0,67.0,-100.00,WSW,245,4.0,12.0,56,0.00,,,-99.99,,2013-05-28 20:02:00,
2013-05-28 16:11:00,83.0,66.0,-100.00,SSW,200,9.0,18.0,57,0.00,,,-99.99,,2013-05-28 20:11:00,
2013-05-28 16:22:00,82.0,65.0,-100.00,SSW,200,4.0,18.0,57,0.00,,,-99.99,,2013-05-28 20:22:00,
2013-05-28 16:32:00,82.0,65.0,-100.00,South,185,4.0,14.0,57,0.00,,,-99.99,,2013-05-28 20:32:00,
2013-05-28 16:42:00,82.0,65.0,-100.00,South,185,6.0,17.0,55,0.00,,,-99.99,,2013-05-28 20:42:00,
2013-05-28 16:52:00,83.0,64.0,-100.00,SW,215,7.0,14.0,54,0.00,,,-99.99,,2013-05-28 20:52:00,
2013-05-28 17:02:00,82.0,64.0,-100.00,South,185,10.0,21.0,53,0.00,,,-99.99,,2013-05-28 21:02:00,
2013-05-28 17:11:00,84.0,65.0,-100.00,WSW,255,5.0,21.0,52,0.00,,,-99.99,,2013-05-28 21:11:00,
2013-05-28 17:21:00,84.0,65.0,-100.00,WSW,245,3.0,14.0,52,0.00,,,-99.99,,2013-05-28 21:21:00,
2013-05-28 17:33:00,84.0,65.0,-100.00,SSW,210,4.0,14.0,52,0.00,,,-99.99,,2013-05-28 21:33:00,
2013-05-28 17:43:00,83.0,64.0,-100.00,SW,220,9.0,19.0,53,0.00,,,-99.99,,2013-05-28 21:43:00,
2013-05-28 17:53:00,82.0,64.0,-100.00,SSW,205,6.0,17.0,54,0.00,,,-99.99,,2013-05-28 21:53:00,
2013-05-28 18:02:00,82.0,64.0,-100.00,SW,220,6.0,15.0,55,0.00,,,-99.99,,2013-05-28 22:02:00,
2013-05-28 18:12:00,82.0,64.0,-100.00,SSW,205,9.0,19.0,54,0.00,,,-99.99,,2013-05-28 22:12:00,
2013-05-28 18:22:00,82.0,64.0,-100.00,SW,215,8.0,19.0,53,0.00,,,-99.99,,2013-05-28 22:22:00,
2013-05-28 18:33:00,82.0,64.0,-100.00,South,190,6.0,15.0,54,0.00,,,-99.99,,2013-05-28 22:33:00,
2013-05-28 18:42:00,81.0,64.0,-100.00,SSW,210,6.0,15.0,54,0.00,,,-99.99,,2013-05-28 22:42:00,
2013-05-28 18:52:00,81.0,63.0,-100.00,SW,230,7.0,14.0,54,0.00,,,-99.99,,2013-05-28 22:52:00,
2013-05-28 19:02:00,81.0,63.0,-100.00,SW,215,3.0,14.0,55,0.00,,,-99.99,,2013-05-28 23:02:00,
2013-05-28 19:11:00,81.0,64.0,-100.00,SSW,195,4.0,7.0,55,0.00,,,-99.99,,2013-05-28 23:11:00,
2013-05-28 19:22:00,80.0,64.0,-100.00,SSW,205,2.0,7.0,56,0.00,,,-99.99,,2013-05-28 23:22:00,
2013-05-28 19:32:00,80.0,64.0,-100.00,SW,220,4.0,11.0,56,0.00,,,-99.99,,2013-05-28 23:32:00,
2013-05-28 19:42:00,80.0,63.0,-100.00,SW,225,6.0,12.0,56,0.00,,,-99.99,,2013-05-28 23:42:00,
2013-05-28 19:52:00,80.0,63.0,-100.00,WSW,240,5.0,12.0,56,0.00,,,-99.99,,2013-05-28 23:52:00,
2013-05-28 20:02:00,80.0,63.0,-100.00,SW,235,3.0,12.0,56,0.00,,,-99.99,,2013-05-29 00:02:00,
2013-05-28 20:11:00,80.0,63.0,-100.00,SW,220,5.0,11.0,56,0.00,,,-99.99,,2013-05-29 00:11:00,
2013-05-28 20:21:00,80.0,63.0,-100.00,SSW,195,3.0,10.0,57,0.00,,,-99.99,,2013-05-29 00:21:00,
2013-05-28 20:32:00,79.0,63.0,-100.00,SSW,210,4.0,9.0,57,0.00,,,-99.99,,2013-05-29 00:32:00,
2013-05-28 20:42:00,79.0,63.0,-100.00,SW,220,6.0,12.0,58,0.00,,,-99.99,,2013-05-29 00:42:00,
2013-05-28 20:52:00,79.0,63.0,-100.00,SSW,205,6.0,12.0,58,0.00,,,-99.99,,2013-05-29 00:52:00,
2013-05-28 21:01:00,78.0,62.0,-100.00,SW,225,4.0,16.0,58,0.00,,,-99.99,,2013-05-29 01:01:00,
2013-05-28 21:11:00,78.0,62.0,-100.00,SSW,205,4.0,10.0,58,0.00,,,-99.99,,2013-05-29 01:11:00,
2013-05-28 21:22:00,78.0,62.0,-100.00,SSW,195,5.0,12.0,58,0.00,,,-99.99,,2013-05-29 01:22:00,
2013-05-28 21:32:00,77.0,62.0,-100.00,SW,215,4.0,7.0,58,0.00,,,-99.99,,2013-05-29 01:32:00,
2013-05-28 21:42:00,77.0,62.0,-100.00,SW,230,3.0,7.0,59,0.00,,,-99.99,,2013-05-29 01:42:00,
2013-05-28 21:52:00,77.0,62.0,-100.00,SW,220,3.0,9.0,59,0.00,,,-99.99,,2013-05-29 01:52:00,
2013-05-28 22:02:00,77.0,62.0,-100.00,SW,220,3.0,9.0,59,0.00,,,-99.99,,2013-05-29 02:02:00,
2013-05-28 22:12:00,77.0,62.0,-100.00,SW,220,3.0,9.0,59,0.00,,,-99.99,,2013-05-29 02:12:00,
2013-05-28 22:21:00,76.0,61.0,-100.00,SSW,210,5.0,11.0,59,0.00,,,-99.99,,2013-05-29 02:21:00,
2013-05-28 22:32:00,76.0,61.0,-100.00,South,185,4.0,9.0,60,0.00,,,-99.99,,2013-05-29 02:32:00,
2013-05-28 22:42:00,76.0,61.0,-100.00,SSW,210,4.0,10.0,60,0.00,,,-99.99,,2013-05-29 02:42:00,
2013-05-28 22:52:00,76.0,61.0,-100.00,SSW,195,6.0,11.0,60,0.00,,,-99.99,,2013-05-29 02:52:00,
2013-05-28 23:02:00,75.0,61.0,-100.00,SSW,205,6.0,10.0,61,0.00,,,-99.99,,2013-05-29 03:02:00,
2013-05-28 23:12:00,75.0,61.0,-100.00,South,190,6.0,10.0,61,0.00,,,-99.99,,2013-05-29 03:12:00,
2013-05-28 23:21:00,75.0,61.0,-100.00,SSW,195,6.0,14.0,61,0.00,,,-99.99,,2013-05-29 03:21:00,
2013-05-28 23:33:00,75.0,61.0,-100.00,SSW,200,6.0,11.0,62,0.00,,,-99.99,,2013-05-29 03:33:00,
2013-05-28 23:43:00,75.0,61.0,-100.00,SSW,200,6.0,11.0,62,0.00,,,-99.99,,2013-05-29 03:43:00,
2013-05-28 23:53:00,75.0,61.0,-100.00,South,190,9.0,15.0,63,0.00,,,-99.99,,2013-05-29 03:53:00,